Terug naar catalogus

GEOS 2

ActiefWeerGEO
NORAD 10981·PAYLOAD·🇪🇺 EU

Gelanceerd Jul 14, 1978 vanaf Cape Canaveral Space Force Station

Loading…

TLE

VersSource: Space-Track

Epoch: Sep 14, 2026, 15:28 UTC

1 10981U 78071A   26257.64461317 -.00000015  00000-0  00000-0 0  9993
2 10981   5.3541 285.7189 0005038 353.3544 206.5204  0.99374780174886

Volg GEOS 2 in realtime met AllMySat

Download on the App Store